Regional Weather Roundup
Issued by NWS

Home | Current Version | Previous Version | Text Only | Print | Product List | Glossary On
Versions: 1 2 3 4 5 6 7 8 9 10 11 12 13 14 15 16 17 18 19 20 21 22 23 24 25 26 27 28 29 30 31 32 33 34 35 36 37 38 39 40 41 42 43 44 45 46 47 48 49 50
000
ASUS43 KOAX 270310
RWRNE

WEATHER ROUNDUP FOR NEBRASKA
NATIONAL WEATHER SERVICE OMAHA NE
1000 PM CDT THU APR 26 2018

NOTES: SATELLITE DATA IS BEING USED TO AUGMENT CLOUD COVER ABOVE
       12000 FEET.
       "FAIR" INDICATES FEW OR NO CLOUDS BELOW 12,000 FEET WITH NO
       SIGNIFICANT WEATHER AND/OR OBSTRUCTIONS TO VISIBILITY.


NEZ001>004-019>022-054>056-270400-
NEBRASKA PANHANDLE

CITY           SKY/WX    TMP DP  RH WIND       PRES   REMARKS
SCOTTSBLUFF    CLEAR     50  30  46 W3        30.18R
ALLIANCE       CLEAR     42  30  62 W3        30.16R
CHADRON        CLEAR     46  33  60 W9        30.14R
GORDON         FAIR      45  34  66 CALM      30.14R
KIMBALL        CLEAR     40  28  62 CALM      30.22R
SIDNEY         CLEAR     36  28  73 NE5       30.20R WCI  32
$$

NEZ057>060-069>072-079>082-270400-
SOUTHWEST NEBRASKA

CITY           SKY/WX    TMP DP  RH WIND       PRES   REMARKS
NORTH PLATTE   CLEAR     45  29  53 CALM      30.16R
IMPERIAL       CLEAR     47  31  53 CALM      30.18R
LEXINGTON      CLEAR     44  29  57 CALM      30.15R
MCCOOK         CLEAR     46  29  51 NW7       30.16R
OGALLALA       CLEAR     46  31  58 CALM      30.18R
$$

NEZ005>010-023>029-035>040-094-270400-
NORTH CENTRAL NEBRASKA

CITY           SKY/WX    TMP DP  RH WIND       PRES   REMARKS
VALENTINE      CLEAR     48  31  51 W8        30.11S
AINSWORTH      CLEAR     49  31  49 W6        30.11S
BROKEN BOW     CLEAR     39  29  67 CALM      30.12S
O`NEILL        CLEAR     49  28  42 CALM      30.09S
ORD            CLEAR     40  31  70 SW3       30.10R
THEDFORD       CLEAR     49  29  46 W3        30.14S
$$

NEZ041-046>049-061>064-073>077-083>087-270400-
SOUTH CENTRAL NEBRASKA

CITY           SKY/WX    TMP DP  RH WIND       PRES   REMARKS
GRAND ISLAND   CLEAR     48  30  49 NW5       30.12R
AURORA         CLEAR     46  28  50 NW5       30.11R
HASTINGS       CLEAR     44  30  57 NW6       30.13R
HEBRON         CLEAR     50  31  48 NW5       30.11R
HOLDREGE       CLEAR     46  31  55 CALM      30.14R
KEARNEY        CLEAR     49  29  46 NW5       30.14R
YORK             N/A     46  27  46 N3        30.11R
$$

NEZ011>018-030>034-042>045-270400-
NORTHEAST NEBRASKA

CITY           SKY/WX    TMP DP  RH WIND       PRES   REMARKS
NORFOLK        CLEAR     44  32  62 W5        30.07R
ALBION         CLEAR     41  34  77 CALM      30.10R
BLAIR          CLEAR     54  29  39 N9        30.05S
COLUMBUS       CLEAR     48  30  49 CALM      30.10R
FREMONT        CLEAR     47  28  47 CALM      30.07S
TEKAMAH        CLEAR     46  28  49 NW10      30.06R
WAYNE          CLEAR     40  29  62 CALM      30.07R
$$

NEZ050>053-065>068-078-088>093-270400-
SOUTHEAST NEBRASKA

CITY           SKY/WX    TMP DP  RH WIND       PRES   REMARKS
LINCOLN        CLEAR     47  29  49 N8        30.09R
OMAHA EPPLEY   CLEAR     50  29  44 N8        30.05R
BEATRICE       CLEAR     47  32  55 N8        30.08R
FALLS CITY     CLEAR     58  28  32 N14G23    30.02R
NEBRASKA CITY  CLEAR     52  29  41 N9        30.05R
PLATTSMOUTH    CLEAR     53  28  38 NW10      30.05R
$$

NEZ044-045-051>053-067-270400-
OMAHA AREA

CITY           SKY/WX    TMP DP  RH WIND       PRES   REMARKS
OMAHA EPPLEY   CLEAR     50  29  44 N8        30.05R
BLAIR          CLEAR     54  29  39 N9        30.05S
FREMONT        CLEAR     47  28  47 CALM      30.07S
MILLARD        CLEAR     58  30  34 N6        30.06R
OFFUTT AFB     CLEAR     56  26  31 NW12      30.04R
PLATTSMOUTH    CLEAR     53  28  38 NW10      30.05R
WAHOO          FAIR      48  28  46 NW9       30.08R
$$




USA.gov is the U.S. government's official web portal to all federal, state and local government web resources and services.